sat.trackr.live / text

‹ back to catalog

LUCA (RS90S)

NORAD 67287 · 2025-313AR

PAYLOAD ACTIVE UNKNOWN

§ Identity

Operator
Country
MNE
Launch date
2025-12-28
Launch site
VOSTO
Launch vehicle
Mass (kg)
RCS (m²)

External: N2YO · Heavens-Above · Gunter

§ Orbital elements

Epoch: 2026-05-24T11:39:38.345472Z

Period
94.48 min
Inclination
97.3937°
Eccentricity
0.0011223
Mean motion
15.24082799 rev/d
Perigee alt
485.8 km
Apogee alt
501.3 km
Semi-major
6,871.7 km
B*
3.2379e-4
RAAN
219.7836°
Arg perigee
83.7302°
Mean anomaly
276.5214°
Rev number
2,236

§ Raw data

LUCA (RS90S)1 67287U 25313AR  26144.48586048  .00007806  00000+0  32379-3 0  99912 67287  97.3937 219.7836 0011223  83.7302 276.5214 15.24082799 22365

JSON: /api/v1/satellites/67287 · /tle

For live sub-satellite position, see the globe view (requires WebGL).

§ Visibility from observer

Set your observer location to see the next 7 days of passes ≥ 10°. The values pass through the URL so the page stays shareable.

No JS? Fill the form by hand. The geolocation button needs JavaScript.